User: anonymous   Login
Location: Cran-Gévrier
(45.9039°N, 6.1012°E)
Time: 01:53:00
(UTC+00:00)
Language:

Cosmos 1386 Rocket - Orbit

View from above orbital plane
View from above orbital plane
View from above satellite
View from above satellite

Ground track
Ground track

The orbit data is extracted from the following two-line orbital elements,

1 13354U 82069B   23152.39731256  .00000170  00000-0  14902-3 0  9997
2 13354  82.9582 162.9717 0052904 139.2879 221.2252 13.79027697 57160
Epoch (UTC): 01 June 2023 09:32:07
Eccentricity: 0.0052904
inclination: 82.9582°
perigee height: 928 km
apogee height: 1006 km
right ascension of ascending node: 162.9717°
argument of perigee: 139.2879°
revolutions per day: 13.79027697
mean anomaly at epoch: 221.2252°
orbit number at epoch: 5716

The dashed part of the orbit path shows where the satellite is in the earth's shadow,  

DLR